Location: Санкт-Петербург
(59.9358°N, 30.3401°E)
Time: 17:55:24
(UTC+03:00)

ISS - Pass Details

Date: 31 January 2021
Orbit: 417 x 422 km, 51.6° (Epoch: 18 May)

Event Time Altitude Azimuth Distance (km) Brightness Sun altitude
Rises 19:51:14 0° 261° (W) 2,377 1.6 -19.7°
Reaches altitude 10° 19:54:07 10° 234° (SW) 1,511 -0.2 -20.0°
Maximum altitude 19:55:53 14° 202° (SSW) 1,305 -1.0 -20.3°
Enters shadow 19:57:05 12° 180° (S) 1,401 -1.1 -20.4°
